[[{"header":{"parameterUnit":"m.s-1","parameterCategory":1,"la1":30.2991,"la2":30.254,"lo1":-89.0895,"lo2":-89.0444,"dy":0.0017,"dx":0.0017,"nx":28,"ny":28,"refTime":"2025-03-28T09:00:00:Z","depth":0,"parameterNumber":2,"parameterNumberName":"U-component_of_WINDS"},"data":[0,0,0,0,0,0,0,0,0,0,0,0,0,0,0,0,0,0,0,0,0,0,0,0,0,0,0,0,0,0,0,0,0,0,0,0,0,0,0,0,0,0,0,0,0,0,0,0,0,0,0,0,0,0,0,0,0,0,-5.4131,-5.4132,0,-5.421,-5.4211,-5.4212,-5.4177,-5.4175,-5.4173,-5.4172,-5.425,-5.4254,-5.4257,0,0,0,0,0,0,0,0,0,0,0,0,0,-5.3948,-5.3951,-5.4131,-5.4132,-5.4133,-5.421,-5.4211,-5.4212,-5.4178,-5.4175,-5.4173,-5.4171,-5.4249,-5.4253,-5.4258,0,0,0,0,0,0,0,0,0,0,0,0,0,-5.4027,-5.3953,-5.413,-5.4125,-5.4125,-5.421,-5.4211,-5.4212,-5.4178,-5.4175,-5.4172,-5.417,-5.4247,-5.4253,-5.4258,-5.4352,0,0,-5.4276,-5.4279,0,0,0,0,0,0,0,0,-5.4023,-5.4034,-5.4125,-5.4125,-5.4126,-5.4181,-5.4175,-5.4259,-5.4179,-5.4158,-5.4172,-5.4168,-5.4229,-5.4236,-5.4257,-5.4356,-5.4359,-5.4277,-5.428,-5.4283,-5.4284,0,0,0,0,0,0,0,-5.4017,-5.403,-5.4162,-5.4126,-5.4127,-5.4118,-5.4126,-5.4191,-5.4209,-5.416,-5.4157,-5.4167,-5.4229,-5.4252,-5.4259,-5.436,-5.4276,-5.4282,-5.4285,-5.4287,-5.454,-5.4543,0,0,0,0,0,0,-5.4012,-5.4026,-5.4159,-5.4164,-5.4066,-5.4124,-5.4133,-5.4166,-5.4208,-5.4211,-5.417,-5.4165,-5.4243,-5.4252,-5.4261,-5.4373,-5.4283,-5.4288,-5.4291,-5.4537,-5.4541,-5.4544,0,0,0,0,0,0,-5.4008,-5.4024,-5.4156,-5.4095,-5.4111,-5.413,-5.4168,-5.4169,-5.4192,-5.4216,-5.4218,-5.419,-5.4241,-5.4253,-5.433,-5.4376,-5.4291,-5.4296,-5.4533,-5.4538,-5.4543,-5.4598,0,0,0,0,0,0,-5.4003,-5.4023,-5.4059,-5.4096,-5.4114,-5.4224,-5.4171,-5.4173,-5.4203,-5.4198,-5.4235,-5.4239,-5.424,-5.4322,-5.4336,-5.4382,-5.43,-5.4529,-5.4535,-5.4541,-5.4592,-5.4605,-5.4615,0,0,0,0,0,-5.3997,-5.4071,-5.4061,-5.4077,-5.416,-5.4227,-5.4237,-5.4238,-5.4206,-5.4242,-5.4258,-5.4237,-5.4369,-5.433,-5.4345,-5.4394,-5.4526,-5.4533,-5.4541,-5.4587,-5.4602,-5.4615,0,0,0,0,0,0,-5.4037,-5.4075,-5.4065,-5.4153,-5.4187,-5.4221,-5.4266,-5.4253,-5.4296,-5.429,-5.4288,-5.4297,-5.4376,-5.4393,-5.4349,-5.4487,-5.4443,-5.4453,-5.4473,-5.4487,-5.4498,-5.4491,-5.4305,0,0,0,0,0,-5.4057,-5.4109,-5.4139,-5.4214,-5.4232,-5.4246,-5.4276,-5.4274,-5.4308,-5.4322,-5.4343,-5.4377,-5.4426,-5.4458,-5.4504,-5.4596,-5.4603,-5.4637,-5.4649,-5.4658,-5.4666,-5.4716,-5.4731,-5.4568,-5.4568,-5.4568,0,0,-5.4097,-5.4124,-5.4157,-5.4223,-5.4249,-5.4302,-5.4258,-5.4316,-5.4356,-5.4331,-5.4404,-5.4421,-5.4459,-5.4544,-5.4582,-5.456,-5.4714,-5.4667,-5.4674,-5.4677,-5.4725,-5.474,-5.4754,-5.4573,-5.4572,-5.4571,0,0,-5.4196,-5.4223,-5.4288,-5.4316,-5.4357,-5.4367,-5.4383,-5.4419,-5.443,-5.4504,-5.4487,-5.4534,-5.4618,-5.4646,-5.4671,-5.4785,-5.4767,-5.48,-5.4857,-5.4906,-5.4919,-5.493,-5.497,-5.4984,-5.4809,-5.4809,-5.4809,0,-5.424,-5.4321,-5.4323,-5.4383,-5.4413,-5.4395,-5.4461,-5.4487,-5.4541,-5.4561,-5.4537,-5.4644,-5.4668,-5.4759,-5.4787,-5.4808,-5.4826,-5.4794,-5.4917,-5.4928,-5.4939,-5.4977,-5.4992,-5.4813,-5.4812,-5.4812,-5.4812,0,-5.4373,-5.4429,-5.4477,-5.4531,-5.4566,-5.4629,-5.464,-5.4676,-5.4672,-5.4684,-5.4761,-5.479,-5.4842,-5.4864,-5.486,-5.4955,-5.494,-5.4917,-5.4871,-5.4958,-5.4993,-5.5008,-5.4818,-5.4817,-5.4815,-5.4815,0,0,-5.4497,-5.4553,-5.4571,-5.4595,-5.464,-5.4683,-5.4746,-5.4799,-5.4829,-5.4867,-5.4919,-5.4992,-5.4971,-5.5,-5.5,-5.5043,-5.513,-5.5014,-5.5015,-5.5033,-5.5236,-5.5252,-5.5269,-5.512,-5.5123,-5.5125,-5.5232,0,-5.4599,-5.4709,-5.4714,-5.4814,-5.4866,-5.4851,-5.4905,-5.4939,-5.4953,-5.4998,-5.5014,-5.5065,-5.5034,-5.5052,-5.5094,-5.5111,-5.517,-5.5103,-5.5167,-5.5169,-5.5156,-5.5287,-5.5304,-5.5403,-5.5246,-5.5249,-5.525,0,-5.4732,-5.4776,-5.4881,-5.492,-5.4942,-5.4991,-5.504,-5.5085,-5.5123,-5.513,-5.5164,-5.5157,-5.5221,-5.5176,-5.5263,-5.5218,-5.5245,-5.5257,-5.5261,-5.5265,-5.5213,-5.5293,-5.5435,-5.5449,-5.5272,-5.5271,-5.5269,0,-5.481,-5.4896,-5.497,-5.4992,-5.504,-5.5074,-5.5096,-5.5131,-5.5163,-5.5206,-5.5226,-5.5276,-5.5303,-5.5342,-5.5349,-5.5316,-5.5437,-5.5392,-5.5443,-5.5443,-5.5467,-5.5465,-5.5613,-5.5488,-5.5488,-5.5488,-5.5487,0,-5.4922,-5.4987,-5.5006,-5.5052,-5.5124,-5.513,-5.5201,-5.522,-5.5252,-5.5301,-5.5292,-5.5337,-5.5345,-5.5393,-5.54,-5.5471,-5.5483,-5.549,-5.5491,-5.549,-5.5489,-5.5505,-5.5498,-5.5492,-5.5491,-5.549,-5.5489,0,-5.5021,-5.5037,-5.5116,-5.5156,-5.5168,-5.5219,-5.5252,-5.5296,-5.531,-5.5372,-5.5387,-5.5408,-5.5464,-5.5476,-5.5542,-5.5547,-5.5631,-5.5625,-5.5618,-5.5617,-5.5667,-5.5661,-5.5829,-5.5851,-5.5713,-5.5715,-5.5716,0,-5.509,-5.514,-5.5185,-5.5218,-5.5241,-5.5294,-5.5326,-5.5335,-5.537,-5.5418,-5.5456,-5.5511,-5.5555,-5.5645,-5.5666,-5.5716,-5.5711,-5.5767,-5.5718,-5.5716,-5.571,-5.5706,-5.5711,-5.5775,-5.5776,-5.5778,-5.5779,0,-5.5211,-5.5217,-5.5265,-5.5317,-5.5357,-5.5398,-5.5436,-5.5463,-5.5478,-5.5517,-5.5574,-5.5609,-5.5677,-5.5732,-5.5783,-5.5804,-5.5794,-5.5794,-5.5808,-5.5807,-5.58,-5.5803,-5.5641,-5.5789,-5.5788,-5.5788,-5.5787,-5.5787,-5.5296,-5.5339,-5.5379,-5.5433,-5.5464,-5.5501,-5.5544,-5.5565,-5.5613,-5.567,-5.5672,-5.5735,-5.5773,-5.5841,-5.5866,-5.5915,-5.5897,-5.5918,-5.5923,-5.5928,-5.5932,-5.5794,-5.5924,-5.5924,-5.5924,-5.5924,-5.5923,0,-5.5415,-5.5441,-5.5491,-5.5546,-5.5589,-5.5578,-5.5621,-5.5657,-5.5713,-5.575,-5.5794,-5.5861,-5.5914,-5.5941,-5.5994,-5.6028,-5.6025,-5.6041,-5.6038,-5.6043,-5.5945,-5.5926,-5.6043,-5.6043,-5.6043,-5.6043,-5.6043,-5.6043,-5.5482,-5.5555,-5.5566,-5.5655,-5.568,-5.5742,-5.5767,-5.5801,-5.5831,-5.5906,-5.5951,-5.5969,-5.6002,-5.6058,-5.6106,-5.6113,-5.6132,-5.6151,-5.6155,-5.6062,-5.605,-5.6038,-5.6021,-5.6156,-5.6156,-5.6249,-5.625,-5.625]},{"header":{"parameterUnit":"m.s-1","parameterCategory":1,"la1":30.2991,"la2":30.254,"lo1":-89.0895,"lo2":-89.0444,"dy":0.0017,"dx":0.0017,"nx":28,"ny":28,"refTime":"2025-03-28T09:00:00:Z","depth":0,"parameterNumber":3,"parameterNumberName":"V-component_of_WINDS"},"data":[0,0,0,0,0,0,0,0,0,0,0,0,0,0,0,0,0,0,0,0,0,0,0,0,0,0,0,0,0,0,0,0,0,0,0,0,0,0,0,0,0,0,0,0,0,0,0,0,0,0,0,0,0,0,0,0,0,0,5.2509,5.251,0,5.2574,5.2575,5.2576,5.2549,5.2547,5.2546,5.2544,5.2604,5.2607,5.261,0,0,0,0,0,0,0,0,0,0,0,0,0,5.2357,5.2359,5.2509,5.251,5.2511,5.2574,5.2575,5.2576,5.2549,5.2547,5.2545,5.2543,5.2603,5.2607,5.2611,0,0,0,0,0,0,0,0,0,0,0,0,0,5.2422,5.236,5.2509,5.2505,5.2505,5.2574,5.2575,5.2576,5.2549,5.2547,5.2545,5.2543,5.2602,5.2607,5.2611,5.2685,0,0,5.2625,5.2627,0,0,0,0,0,0,0,0,5.2418,5.2428,5.2505,5.2506,5.2506,5.2551,5.2543,5.2613,5.255,5.2532,5.2544,5.2541,5.2588,5.2594,5.2611,5.2688,5.2691,5.2625,5.2628,5.263,5.2631,0,0,0,0,0,0,0,5.2414,5.2425,5.2535,5.2506,5.2507,5.2499,5.2505,5.2556,5.2572,5.2534,5.2532,5.254,5.2588,5.2606,5.2612,5.2692,5.2625,5.2629,5.2632,5.2634,5.2835,5.2838,0,0,0,0,0,0,5.241,5.2421,5.2533,5.2537,5.2456,5.2503,5.2511,5.2539,5.2572,5.2575,5.2542,5.2539,5.26,5.2607,5.2614,5.2704,5.263,5.2634,5.2637,5.2832,5.2836,5.2838,0,0,0,0,0,0,5.2407,5.242,5.253,5.2479,5.2492,5.2508,5.254,5.2541,5.256,5.2578,5.258,5.2559,5.2598,5.2608,5.2669,5.2706,5.2636,5.2641,5.2829,5.2833,5.2837,5.2885,0,0,0,0,0,0,5.2403,5.2419,5.2449,5.248,5.2495,5.2585,5.2542,5.2544,5.2569,5.2565,5.2594,5.2597,5.2597,5.2662,5.2673,5.2711,5.2644,5.2826,5.2831,5.2836,5.288,5.289,5.2899,0,0,0,0,0,5.2397,5.2458,5.245,5.2464,5.2532,5.2587,5.2596,5.2597,5.2572,5.2601,5.2613,5.2596,5.27,5.2669,5.2681,5.2721,5.2824,5.283,5.2835,5.2876,5.2888,5.2898,0,0,0,0,0,0,5.2427,5.2461,5.2454,5.2526,5.2555,5.2583,5.2619,5.261,5.2644,5.2638,5.2637,5.2643,5.2707,5.272,5.2684,5.2795,5.2758,5.2767,5.2784,5.2796,5.2805,5.2801,5.2648,0,0,0,0,0,5.2443,5.2487,5.2513,5.2575,5.259,5.2602,5.2626,5.2625,5.2653,5.2665,5.2681,5.2707,5.2747,5.2772,5.2809,5.2882,5.2888,5.2915,5.2925,5.2932,5.2939,5.2981,5.2993,5.2858,5.2858,5.2858,0,0,5.2474,5.2499,5.2526,5.2581,5.2603,5.2648,5.2612,5.266,5.2693,5.2671,5.2731,5.2744,5.2773,5.2842,5.2872,5.2854,5.2979,5.294,5.2946,5.2949,5.2988,5.3001,5.3012,5.2862,5.2861,5.286,0,0,5.2555,5.2578,5.2632,5.2656,5.2691,5.2699,5.2712,5.2743,5.2752,5.2813,5.2798,5.2836,5.2903,5.2925,5.2945,5.3037,5.3023,5.3049,5.3097,5.3137,5.3148,5.3157,5.3191,5.3203,5.3056,5.3057,5.3057,0,5.2589,5.2657,5.2661,5.2711,5.2736,5.2722,5.2777,5.2799,5.2843,5.286,5.2839,5.2925,5.2943,5.3018,5.3041,5.3057,5.3072,5.3045,5.3146,5.3156,5.3165,5.3197,5.3209,5.306,5.3059,5.3059,5.3059,0,5.2698,5.2746,5.2785,5.2832,5.2861,5.2913,5.2924,5.2953,5.295,5.296,5.3023,5.3045,5.3087,5.3105,5.3101,5.3179,5.3167,5.3147,5.3109,5.3181,5.3211,5.3223,5.3064,5.3063,5.3062,5.3061,0,0,5.2797,5.2848,5.2862,5.2884,5.2923,5.2959,5.301,5.3054,5.308,5.3111,5.3154,5.3213,5.3195,5.3218,5.3217,5.3252,5.3325,5.3228,5.3228,5.3246,5.3414,5.3429,5.3443,5.3317,5.3319,5.3321,5.3411,0,5.2881,5.2975,5.2981,5.3065,5.3109,5.3098,5.3143,5.3171,5.3182,5.322,5.3232,5.3274,5.3247,5.3262,5.3296,5.3309,5.3359,5.3303,5.3356,5.3358,5.3349,5.3459,5.3474,5.3559,5.3423,5.3425,5.3426,0,5.2991,5.303,5.312,5.3155,5.3173,5.3214,5.3256,5.3293,5.3324,5.333,5.3358,5.3352,5.3404,5.3366,5.3438,5.3399,5.3421,5.3431,5.3435,5.3439,5.3396,5.3467,5.3586,5.3598,5.3445,5.3443,5.3442,0,5.3056,5.313,5.3194,5.3213,5.3254,5.3284,5.3302,5.3332,5.3359,5.3394,5.3412,5.3452,5.3474,5.3505,5.3511,5.3482,5.3583,5.3545,5.3589,5.3589,5.361,5.3609,5.3735,5.3624,5.3624,5.3624,5.3623,0,5.315,5.3205,5.3224,5.3263,5.3325,5.3331,5.3391,5.3407,5.3434,5.3475,5.3467,5.3505,5.351,5.3549,5.3554,5.3613,5.3623,5.3628,5.3629,5.3629,5.3629,5.3644,5.3638,5.3627,5.3626,5.3626,5.3625,0,5.3232,5.3247,5.3316,5.3351,5.3362,5.3406,5.3435,5.3472,5.3484,5.3536,5.3549,5.3566,5.3613,5.3622,5.3675,5.3678,5.3749,5.3743,5.374,5.3739,5.3783,5.3779,5.3923,5.3942,5.3819,5.382,5.3821,0,5.329,5.3333,5.3375,5.3404,5.3424,5.347,5.3498,5.3506,5.3535,5.3576,5.3608,5.3655,5.3692,5.3766,5.3783,5.3824,5.3819,5.3867,5.3825,5.3825,5.3821,5.3819,5.3823,5.3875,5.3876,5.3877,5.3878,0,5.3393,5.34,5.3442,5.3489,5.3524,5.3559,5.3593,5.3616,5.3628,5.3662,5.3711,5.374,5.3797,5.3843,5.3885,5.3902,5.3892,5.3892,5.3904,5.3905,5.3901,5.3905,5.3762,5.3888,5.3887,5.3886,5.3886,5.3885,5.3466,5.3505,5.3541,5.3589,5.3616,5.3649,5.3687,5.3705,5.3746,5.3795,5.3797,5.385,5.3882,5.3938,5.3958,5.3999,5.3984,5.4001,5.4006,5.401,5.4015,5.3895,5.4006,5.4006,5.4006,5.4006,5.4005,0,5.3569,5.3593,5.3638,5.3688,5.3726,5.3716,5.3754,5.3786,5.3834,5.3866,5.3904,5.3961,5.4006,5.4027,5.4071,5.41,5.4097,5.4111,5.4109,5.4114,5.4026,5.4011,5.4114,5.4114,5.4114,5.4114,5.4114,5.4114,5.3628,5.3693,5.3704,5.3783,5.3805,5.386,5.3883,5.3913,5.3938,5.4003,5.4042,5.4057,5.4084,5.4131,5.4171,5.4176,5.4193,5.421,5.4213,5.4131,5.412,5.4109,5.4095,5.4214,5.4214,5.4298,5.4298,5.4299]}]]